Regional Weather Roundup
Issued by NWS Albany, NY

Home | Current Version | Previous Version | Text Only | Print | Product List | Glossary On
Versions: 1 2 3 4 5 6 7 8 9 10 11 12 13 14 15 16 17 18 19 20 21 22 23 24 25 26 27 28 29 30 31 32 33 34 35 36 37 38 39 40 41 42 43 44 45 46 47 48 49 50
000
ASUS41 KALY 280310
RWRALY

NEW YORK STATE HOURLY WEATHER ROUNDUP
NATIONAL WEATHER SERVICE ALBANY NY
1100 PM EDT MON JUL 27 2015

NOTE: "FAIR" INDICATES FEW OR NO CLOUDS BELOW 12,000 FEET WITH NO
SIGNIFICANT WEATHER AND/OR NO OBSTRUCTIONS TO VISIBILITY.

NYZ032-033-038>043-046>054-057>066-NYZ062>081-280400-
EAST


CITY           SKY/WX    TMP DP  RH WIND       PRES   REMARKS
ALBANY         MOCLDY    79  67  66 S7        29.98F
GLENS FALLS    PTCLDY    68  65  90 NW5       29.98S
POUGHKEEPSIE   CLEAR     74  68  81 CALM      30.00S
NEWBURGH       CLEAR     70  68  94 CALM      30.03R
MONTGOMERY     CLEAR     69  68  96 CALM      30.02R
WHITE PLAINS   PTCLDY    72  67  84 SE3       30.03R
ISLIP          PTCLDY    74  69  85 SW7       30.01S
NEW YORK CITY  MOCLDY    79  67  66 SW6       30.01S
CENTRAL PARK   CLEAR     78  67  68 CALM      30.04S
$$

NYZ005>009-017-018-044>046-055-056-280400-
CENTRAL


CITY           SKY/WX    TMP DP  RH WIND       PRES   REMARKS
FULTON         CLEAR     64  61  90 CALM      29.99F
SYRACUSE       PTCLDY    72  66  81 CALM      30.00S
ROME           CLEAR     68  62  81 CALM      30.02S
ELMIRA         CLEAR     63  61  93 W3        30.04R
BINGHAMTON     CLEAR     73  63  70 N6        30.06S
MONTICELLO     CLEAR     66  66 100 CALM      30.07S
$$

NYZ026>034-041>043-280400-
NORTH


CITY           SKY/WX    TMP DP  RH WIND       PRES   REMARKS
WATERTOWN      PTCLDY    64  60  87 SE6       29.98F
FORT DRUM      NOT AVBL
MASSENA        PTCLDY    72  62  71 NW6       29.96R
SARANAC LAKE   CLOUDY    65  62  90 CALM      30.02S
PLATTSBURGH    PTCLDY    68  66  93 CALM      29.96R
$$

NYZ001>004-010>016-019>021-280400-
WEST


CITY           SKY/WX    TMP DP  RH WIND       PRES   REMARKS
NIAGARA FALLS  PTCLDY    76  62  62 SW3       30.00R
BUFFALO        PTCLDY    76  64  66 S6        30.01S
DUNKIRK        CLEAR     66  63  90 S5        30.03R
JAMESTOWN      CLEAR     72  57  60 NE3       30.09R
WELLSVILLE     CLEAR     70  60  70 CALM      30.12R
ROCHESTER      PTCLDY    73  65  75 CALM      30.01R
PENN YAN       CLEAR     69  64  84 W5        30.04S
$$

             KEY
       WCI = WIND CHILL INDEX
       VSB = VISIBILITY
       HX  = HEAT INDEX
$$


USA.gov is the U.S. government's official web portal to all federal, state and local government web resources and services.